Regional Weather Roundup
Issued by NWS

Home | Current Version | Previous Version | Graphics & Text | Print | Product List | Glossary Off
Versions: 1 2 3 4 5 6 7 8 9 10 11 12 13 14 15 16 17 18 19 20 21 22 23 24 25 26 27 28 29 30 31 32 33 34 35 36 37 38 39 40 41 42 43 44 45 46 47 48 49 50

000
ASUS43 KMKX 051200
RWRWI

WISCONSIN REGIONAL WEATHER ROUNDUP
NATIONAL WEATHER SERVICE MILWAUKEE/SULLIVAN WI
700 AM CDT SAT SEP 05 2015

NOTE: "FAIR" INDICATES FEW OR NO CLOUDS BELOW 12,000 FEET WITH NO
SIGNIFICANT WEATHER AND/OR OBSTRUCTIONS TO VISIBILITY.

WIZ001-002-006>008-014>016-023>028-051300-
NORTHWEST WISCONSIN

CITY           SKY/WX    TMP DP  RH WIND       PRES   REMARKS
SUPERIOR ARPT  CLOUDY    61  60  96 CALM      29.99F
ASHLAND        CLOUDY    65  65 100 E3        30.02F
6HR MIN TEMP:  62; 6HR MAX TEMP:  70;

HAYWARD        PTCLDY    68  65  90 SE3       30.03S FOG
6HR MIN TEMP:  68; 6HR MAX TEMP:  72;

SIREN          PTCLDY    70  68  94 SE7       29.98S
CUMBERLAND     MOCLDY    64  64 100 SE3       30.02S FOG
RICE LAKE      PTCLDY    67  65  91 CALM      30.03S FOG
CHETEK         PTCLDY    67  67  97 MISG      30.02F
LADYSMITH      CLEAR     66  64  96 E5        30.07R FOG
EAU CLAIRE     NOT AVBL
MENOMONIE      PTCLDY    70  69  98 E6        30.01R FOG
NEW RICHMOND   PTCLDY    72  70  93 SE5       29.99S
OSCEOLA        PTCLDY    72  72 100 E6        30.00S
$$

WIZ003>005-009-010-017-018-051300-
NORTH CENTRAL WISCONSIN

CITY           SKY/WX    TMP DP  RH WIND       PRES   REMARKS
MANITOWISH WTR CLOUDY    65  65 100 S6        30.08S FOG
ARBOR VITAE    CLOUDY    67  65  94 S3        30.09S FOG
WOODRUFF       CLOUDY    67  65  94 S3        30.09S FOG
RHINELANDER    CLOUDY    66  64  93 SE5       30.11R FOG
6HR MIN TEMP:  64; 6HR MAX TEMP:  66;

EAGLE RIVER    CLOUDY    64  64 100 CALM      30.09S FOG
LAND O LAKES   CLOUDY    65  64  97 CALM      30.10S FOG
PHILLIPS       PTCLDY    65  65 100 CALM      30.07R FOG
6HR MIN TEMP:  65; 6HR MAX TEMP:  68;

TOMAHAWK       CLOUDY    64  63  95 CALM      30.09S FOG
MEDFORD        FOG       65  65 100 SE5       30.07R VSB 1/4
MERRILL        CLOUDY    66  66 100 CALM      30.09S FOG
6HR MIN TEMP:  65; 6HR MAX TEMP:  67;

$$

WIZ029-030-035-036-043>047-051300-
CENTRAL WISCONSIN

CITY           SKY/WX    TMP DP  RH WIND       PRES   REMARKS
WAUSAU         CLOUDY    68  65  90 SE3       30.07R FOG
6HR MIN TEMP:  66; 6HR MAX TEMP:  68;

MOSINEE        CLOUDY    66  66 100 CALM      30.09R FOG
MARSHFIELD     FOG       67  64  90 SE5       30.06S VSB 1/4
6HR MIN TEMP:  66; 6HR MAX TEMP:  68;

STEVENS POINT  CLOUDY    64  64  99 CALM      30.08R FOG
WAUPACA          N/A     66  65  97 CALM      30.07S FOG
WAUTOMA        FOG       63  63 100 CALM      30.08R VSB<1/4
WISC RAPIDS    CLOUDY    66  63  90 SE5       30.08R FOG
6HR MIN TEMP:  65; 6HR MAX TEMP:  69;

CAMP DOUGLAS   CLOUDY    68  68 100 SE6       30.04S FOG
$$

WIZ011>013-019>022-031-037>040-048>050-051300-
NORTHEAST WISCONSIN

CITY           SKY/WX    TMP DP  RH WIND       PRES   REMARKS
ANTIGO         CLOUDY    64  64 100 SE3       30.10R FOG
SHAWANO        NOT AVBL
OCONTO         CLOUDY    60  60 100 CALM      30.07S
STURGEON BAY   CLOUDY    66  63  88 CALM      30.11R VSB<1/4
6HR MIN TEMP:  64; 6HR MAX TEMP:  66;

GREEN BAY      FOG       64  63  96 NE3       30.08R VSB 3/4
6HR MIN TEMP:  61; 6HR MAX TEMP:  64;

MANITOWOC      FOG       63  61  94 MISG      30.08S VSB 1/4
APPLETON       MOCLDY    66  66 100 VRB3      30.06S FOG
CLINTONVILLE   CLOUDY    63  63 100 CALM      30.07S FOG
OSHKOSH        CLEAR     64  62  93 S3        30.06S FOG
6HR MIN TEMP:  63; 6HR MAX TEMP:  67;

$$

WIZ032>034-041-042-053>061-051300-
SOUTHWEST WISCONSIN

CITY           SKY/WX    TMP DP  RH WIND       PRES   REMARKS
LA CROSSE      MOCLDY    72  69  90 SE7       30.01R
6HR MIN TEMP:  72; 6HR MAX TEMP:  77; 6HR PCP:  0.06;

SPARTA         CLOUDY    68  66  93 CALM      30.04R
VIROQUA        MOCLDY    73  66  80 S6        30.05S
BOSCOBEL       CLOUDY    72  70  93 CALM      30.04S FOG
6HR MIN TEMP:  72; 6HR MAX TEMP:  74; 6HR PCP:  0.02;

PRAIRIE DU CHI MOCLDY    73  70  91 CALM      30.03S
PLATTEVILLE    CLOUDY    71  71  99 E7        30.06S
$$

WIZ056-057-062-063-064-067-068-051300-
SOUTH CENTRAL WISCONSIN

CITY           SKY/WX    TMP DP  RH WIND       PRES   REMARKS
REEDSBURG      PTCLDY    66  66  99 CALM      30.06S FOG
BARABOO/DELLS  PTCLDY    65  64  94 S5        30.06F FOG
LONE ROCK      NOT AVBL
MINERAL POINT  LGT RAIN  72  68  88 NE8       30.07S
MADISON        PTCLDY    68  65  90 CALM      30.06F
6HR MIN TEMP:  66; 6HR MAX TEMP:  69;

MIDDLETON      PTCLDY    65  64  99 CALM      30.08S
WATERTOWN      FOG       65  65 100 CALM      30.07S VSB 1
MONROE         CLOUDY    66  64  94 CALM      30.08R FOG
JANESVILLE     NOT AVBL
$$

WIZ051-052-058>065-066-070>072-051300-
SOUTHEAST WISCONSIN

CITY           SKY/WX    TMP DP  RH WIND       PRES   REMARKS
MILWAUKEE      CLOUDY    66  65  96 NE3       30.08S FOG
6HR MIN TEMP:  65; 6HR MAX TEMP:  67; 6HR PCP:  0.28;

WAUKESHA       FOG       64  64 100 CALM      30.10R VSB 1/4
MILWAUKEE/TIMM FOG       64  61  88 CALM      30.08S VSB 1
RACINE         CLOUDY    68  65  90 SE5       30.10S FOG
6HR MIN TEMP:  66; 6HR MAX TEMP:  69; 6HR PCP:  0.01;

BURLINGTON     FOG       65  65  99 NE3       30.09R VSB 3/4
KENOSHA        FOG       66  65  96 NE3       30.09R VSB 1/4
6HR MIN TEMP:  64; 6HR MAX TEMP:  68;

FOND DU LAC    PTCLDY    65  63  93 CALM      30.07R
6HR MIN TEMP:  64; 6HR MAX TEMP:  66;

SHEBOYGAN      MOCLDY    64  64 100 CALM      30.08R
6HR MIN TEMP:  64; 6HR MAX TEMP:  65; 6HR PCP: TRACE;

WEST BEND      MOCLDY    63  61  94 CALM      30.08S FOG
JUNEAU         PTCLDY    63  63  98 CALM      30.09R FOG
$$

LSZ147-162-051300-
LAKE SUPERIOR

STATION/POSITION TIME  TEMP    WIND        PRES    WAVE
                       AIR SEA DIR/SP/G            HT/PER
                 (UTC) (F)     (DEG/KT/KT) (MB)    (FT/S)
W MID LAKE BUOY  1050   62 57  110/  6/  8 1016.1F   1/ 4
DEVILS ISLAND    1100   68     160/ 11/ 15 1015.4F
PORT WING        1100   64     100/  2/  4 1015.9
SAXON HARBOR     1100   67        CALM     1016.6R
$$

LMZ867-665-643>646-051300-
LAKE MICHIGAN

STATION/POSITION TIME  TEMP    WIND        PRES    WAVE
                       AIR SEA DIR/SP/G            HT/PER
                 (UTC) (F)     (DEG/KT/KT) (MB)    (FT/S)
CHAMBERS ISLAND  1100   65      CALM  /  1 1018.3S
S GREEN BAY BUOY 1100   65 67  160/  2/  2 1019.6F
N MID LAKE BUOY  1050   67 67  240/  6/  8 1017.9R   0
NORTHPORT PIER   1100   67      CALM  /  6 1017.9S
SISTER BAY       1111   66        CALM       N/A
ALGOMA LAKESHORE 1144             CALM       N/A
KEWAUNEE LAKESHO 1100   63        CALM     1017.5F
SHEBOYGAN LAKESH 1100   59      CALM  /  1 1018.7R
PORT WASHINGTON  1140   60     150/  1/  3 1019.3S
ATWATER BUOY     1100   59 59  310/  2/  2 1020.0R
MILWAUKEE LAKESH 1110   62      30/  5/  6   N/A
S MID LAKE BUOY  1050   70 71   90/  6/  6 1017.9S   0
KENOSHA   LAKESH 1100   64     350/  2/  2 1017.9S
$$

TC  - TEMPERATURE IN CELSIUS
VSB - VISIBILITY IN STATUTE MILES
WCI - WIND CHILL INDEX
HX  - HEAT INDEX



USA.gov is the U.S. government's official web portal to all federal, state and local government web resources and services.